CZ-6A DEB, 55208

Orbit data source: Space-Track

CZ-6A DEB, 55208 is space debris in SSO originally from a launch on Fri, 11 Nov 2022 UTC launched from the Taiyaun Space Center, China (TSC). Debris objects in space refer to the collection of defunct objects orbiting the Earth. Examples of debris include non-operational satellites, rocket bodies, and fragments generated from explosions, collisions, or faulty payload assembly.

Loading next visibility...
Identifier
55208, 2022-151VZ
Orbit
SSO
Country
Flag of CNCN / PRC
Related business
Manufacturer
SAST
Mission
Spacecraft
Bus & Motor
Unknown
Mass
Unknown
Launch date (UTC)
2022-11-11 (4 years ago)
Launch vehicle
Unknown
Launch site
Taiyaun Space Center, China (TSC)
Object type
Payload
Rocket body
Debris
Shape & HBR
Unknown shape, 0.1 m
Radar Cross Section
Small (<0.1 m²)

Expand to show TLE details & history
Last TLE update: 13 hours ago

TLE from 13 hours ago
0 CZ-6A DEB
1 55208U 22151VZ  26265.19691832  .00025487  00000-0  21280-2 0  9992
2 55208  98.6244 350.7290 0038746 295.4810  64.2404 14.97945863200017
Epoch: 2026-09-22T04:43Z
TLE epoch observation values (Epoch: 2026-09-22T04:43:33.742Z)
Latitude
-0°
Longitude
-81.22745°
Altitude
564.644 km
Speed
7.585 km/s
True Right ascension
23h 22m 54s
True Declination
0° 00' 00"
Sunlit
Object was in full shadow at epoch
Visualization orbit readout
Latitude
Unknown
Longitude
Unknown
Altitude
Unknown
Speed
Unknown
Apparent Right ascension
Unknown
Apparent Declination
Unknown
Sunlit
N/A
Visualization observer readout
Local Sidereal Time
11:02:21
Azimuth
Unknown
Elevation
Unknown
Doppler factor
Unknown
Orbital elements
Apogee altitude
597.217 km
Perigee altitude
543.373 km
Semi-major axis
6,948.432 km
Eccentricity
0.00387
Inclination
98.6244°
RAAN
350.729°
Arg. of periapsis
295.481°
True anomaly
64.64111°
Mean anomaly
64.2404°
Eccentric anomaly
64.44067°
Mean motion
3.74725 °/min
Orbital period
96.07 mins
BSTAR
0.002128
Loading maneuver chart data...
Computing Atmospheric mass density...
Loading historical data...
Loading historical data...
Loading historical data...
Loading historical data...
Loading historical data...
Loading historical data...
Loading historical data...

Documentation

Showing up to 5 results
|